Regional Weather Roundup
Issued by NWS

Home | Current Version | Previous Version | Graphics & Text | Print | Product List | Glossary On
Versions: 1 2 3 4 5 6 7 8 9 10 11 12 13 14 15 16 17 18 19 20 21 22 23 24 25 26 27 28 29 30 31 32 33 34 35 36 37 38 39 40 41 42 43 44 45 46 47 48 49 50
751
ASUS43 KOAX 282302
RWRNE

WEATHER ROUNDUP FOR NEBRASKA
NATIONAL WEATHER SERVICE OMAHA NE
600 PM CDT WED JUN 28 2017

NOTES: SATELLITE DATA IS BEING USED TO AUGMENT CLOUD COVER ABOVE
       12000 FEET.
       "FAIR" INDICATES FEW OR NO CLOUDS BELOW 12,000 FEET WITH NO
       SIGNIFICANT WEATHER AND/OR OBSTRUCTIONS TO VISIBILITY.

  * THESE STATIONS DO NOT REPORT WEATHER SUCH AS RAIN...SNOW OR FOG.

NEZ001>004-019>022-054>056-290000-
NEBRASKA PANHANDLE

CITY           SKY/WX    TMP DP  RH WIND       PRES   REMARKS
SCOTTSBLUFF    PTSUNNY   86  46  24 VRB6      29.74F
ALLIANCE       MOSUNNY   82  49  31 E7        29.76F
CHADRON        MOSUNNY   83  41  22 SW9       29.72F
GORDON         MOCLDY    80  46  30 W6        29.81R
KIMBALL        CLOUDY    88  40  18 SW9G17    29.82F
SIDNEY         MOSUNNY   80  49  33 E10       29.83F
$$

NEZ057>060-069>072-079>082-290000-
SOUTHWEST NEBRASKA

CITY           SKY/WX    TMP DP  RH WIND       PRES   REMARKS
NORTH PLATTE   SUNNY     90  47  22 W5        29.72F
IMPERIAL       SUNNY     90  38  16 VRB3      29.76F
LEXINGTON      SUNNY     89  52  28 CALM      29.73F
MCCOOK         MOSUNNY   92  50  23 E8        29.72F
OGALLALA       SUNNY     88  41  19 NE5       29.75F
$$

NEZ005>010-023>029-035>040-094-290000-
NORTH CENTRAL NEBRASKA

CITY           SKY/WX    TMP DP  RH WIND       PRES   REMARKS
VALENTINE      SUNNY     90  40  17 NW8G18    29.72F
AINSWORTH      SUNNY     86  50  28 NW8       29.73F
BROKEN BOW     SUNNY     90  52  27 N5        29.72F
O`NEILL        SUNNY     88  55  32 W9        29.70S
ORD            SUNNY     88  53  30 N12       29.69S
THEDFORD       SUNNY     89  49  25 N10       29.75F
$$

NEZ041-046>049-061>064-073>077-083>087-290000-
SOUTH CENTRAL NEBRASKA

CITY           SKY/WX    TMP DP  RH WIND       PRES   REMARKS
GRAND ISLAND   SUNNY     88  61  40 W3        29.71F
AURORA         SUNNY     86  62  43 W3        29.70F
HASTINGS       SUNNY     87  57  35 N5        29.73S
HEBRON         PTSUNNY   93  66  41 NW8       29.66F HX  95
HOLDREGE       MOSUNNY   85  52  31 CALM      29.73F
KEARNEY *      SUNNY     88  57  35 CALM      29.73S
YORK           SUNNY     86  63  45 W7        29.69F
$$

NEZ011>018-030>034-042>045-290000-
NORTHEAST NEBRASKA

CITY           SKY/WX    TMP DP  RH WIND       PRES   REMARKS
NORFOLK        MOSUNNY   88  58  36 W10       29.64F
ALBION         MOSUNNY   90  55  30 NW7       29.68S
BLAIR          SUNNY     88  64  44 W12       29.65R
FREMONT        SUNNY     88  62  42 W10       29.65S
TEKAMAH        SUNNY     90  61  37 W14G21    29.62S HX  90
WAYNE          PTSUNNY   85  65  50 NW7       29.65S
$$

NEZ050>053-065>068-078-088>093-290000-
SOUTHEAST NEBRASKA

CITY           SKY/WX    TMP DP  RH WIND       PRES   REMARKS
LINCOLN        SUNNY     90  66  45 W13       29.66S HX  92
OMAHA EPPLEY   MOSUNNY   91  65  41 NW15      29.63R HX  93
BEATRICE       CLOUDY    90  74  59 NW6       29.65S HX  98
FALLS CITY     CLOUDY    87  70  56 SW17G31   29.64S HX  92
NEBRASKA CITY  PTSUNNY   84  75  75 W10G16    29.65F HX  92
PLATTSMOUTH    CLOUDY    88  72  58 W12       29.65R HX  94
$$

NEZ044-045-051>053-067-290000-
OMAHA AREA

CITY           SKY/WX    TMP DP  RH WIND       PRES   REMARKS
OMAHA EPPLEY   MOSUNNY   91  65  41 NW15      29.63R HX  93
BLAIR          SUNNY     88  64  44 W12       29.65R
FREMONT        SUNNY     88  62  42 W10       29.65S
MILLARD        SUNNY     91  69  48 W12G21    29.64R HX  95
OFFUTT AFB     SUNNY     90  67  47 W10       29.63R HX  93
PLATTSMOUTH    CLOUDY    88  72  58 W12       29.65R HX  94
WAHOO          FAIR      88  62  42 W13       29.65S
$$




USA.gov is the U.S. government's official web portal to all federal, state and local government web resources and services.